KA9MAC-13 Weather Reports


Display with metric or nautical units.
time (UTC)temp
F
wind
direction
speed
MPH
gust
MPH
rain 1hr
in
rain 24hr
in
rain mn
in
humidity
%
barometer
mb
20260903020331 83 203 2.0 7.0 0.00 0.00 0.00 79 1012.9
20260903015830 83 180 3.0 7.0 0.00 0.00 0.00 79 1012.5
20260903015325 83 180 4.0 7.0 0.00 0.00 0.00 79 1012.5
20260903014820 83 203 5.0 7.0 0.00 0.00 0.00 79 1012.5
20260903014315 84 23 4.0 7.0 0.00 0.00 0.00 78 1012.5
20260903013810 84 203 4.0 7.0 0.00 0.00 0.00 78 1012.5
20260903013306 84 180 3.0 7.0 0.00 0.00 0.00 78 1012.5
20260903012800 84 180 3.0 6.0 0.00 0.00 0.00 78 1012.5
20260903012256 84 180 4.0 6.0 0.00 0.00 0.00 78 1012.2
20260903011751 84 113 2.0 6.0 0.00 0.00 0.00 78 1012.2
20260903011246 84 203 4.0 6.0 0.00 0.00 0.00 78 1012.2
20260903010741 84 248 4.0 6.0 0.00 0.00 0.00 78 1012.2
20260903010236 84 180 4.0 6.0 0.00 0.00 0.00 78 1012.2
20260903005735 84 180 2.0 6.0 0.00 0.00 0.00 78 1012.2
20260903005232 84 203 4.0 6.0 0.00 0.00 0.00 77 1012.2
20260903004725 85 180 2.0 6.0 0.00 0.00 0.00 77 1011.9
20260903004221 85 180 4.0 6.0 0.00 0.00 0.00 77 1011.9
20260903003717 85 180 5.0 6.0 0.00 0.00 0.00 76 1012.2
20260903003210 85 158 3.0 6.0 0.00 0.00 0.00 76 1012.2
20260903002705 85 180 2.0 6.0 0.00 0.00 0.00 76 1012.2
20260903002201 86 180 4.0 6.0 0.00 0.00 0.00 75 1011.9
20260903001656 86 180 3.0 6.0 0.00 0.00 0.00 75 1011.9
20260903001150 86 180 3.0 6.0 0.00 0.00 0.00 74 1012.2
20260903000646 87 180 6.0 6.0 0.00 0.00 0.00 73 1012.2
20260903000141 87 180 5.0 6.0 0.00 0.00 0.00 73 1012.2
20260902235635 87 180 5.0 6.0 0.00 0.00 0.00 72 1012.2
20260902235132 88 203 2.0 6.0 0.00 0.00 0.00 71 1012.2
20260902234631 88 135 5.0 6.0 0.00 0.00 0.00 70 1012.2
20260902234131 89 180 2.0 7.0 0.00 0.00 0.00 70 1012.2
20260902233631 89 158 4.0 7.0 0.00 0.00 0.00 69 1012.2
20260902233131 90 158 2.0 7.0 0.00 0.00 0.00 68 1012.2
20260902232625 90 180 4.0 7.0 0.00 0.00 0.00 67 1012.2
20260902232121 91 135 2.0 7.0 0.00 0.00 0.00 67 1012.2
20260902231616 91 113 6.0 7.0 0.00 0.00 0.00 65 1012.2
20260902231110 91 180 3.0 9.0 0.00 0.00 0.00 66 1012.2
20260902230606 91 180 5.0 9.0 0.00 0.00 0.00 66 1012.2
20260902230101 92 270 3.0 11.0 0.00 0.00 0.00 64 1012.2
20260902225555 93 90 5.0 11.0 0.00 0.00 0.00 61 1012.2
20260902225051 94 203 4.0 11.0 0.00 0.00 0.00 61 1012.2
20260902224545 94 68 5.0 11.0 0.00 0.00 0.00 61 1012.2
20260902224041 94 203 4.0 11.0 0.00 0.00 0.00 61 1012.2
20260902223536 94 68 5.0 11.0 0.00 0.00 0.00 60 1012.2
20260902223036 95 203 2.0 11.0 0.00 0.00 0.00 60 1012.2
20260902222536 94 225 4.0 11.0 0.00 0.00 0.00 60 1012.2
20260902222036 94 270 5.0 11.0 0.00 0.00 0.00 59 1012.2
20260902221531 95 180 4.0 11.0 0.00 0.00 0.00 58 1012.2
20260902221030 94 180 5.0 11.0 0.00 0.00 0.00 59 1012.2
20260902220526 96 270 7.0 11.0 0.00 0.00 0.00 57 1012.2
20260902220020 94 180 6.0 12.0 0.00 0.00 0.00 58 1012.2
20260902215516 96 338 5.0 12.0 0.00 0.00 0.00 57 1012.2
20260902215011 96 180 6.0 12.0 0.00 0.00 0.00 56 1012.2
20260902214505 96 135 4.0 12.0 0.00 0.00 0.00 57 1012.2
20260902214001 96 135 4.0 12.0 0.00 0.00 0.00 55 1012.2
20260902213456 96 45 6.0 12.0 0.00 0.00 0.00 55 1012.5
20260902212951 96 203 5.0 12.0 0.00 0.00 0.00 55 1012.5
20260902212446 96 180 5.0 12.0 0.00 0.00 0.00 54 1012.2
20260902211941 96 203 5.0 12.0 0.00 0.00 0.00 57 1012.2
20260902211436 96 90 7.0 12.0 0.00 0.00 0.00 56 1012.2
20260902210936 97 225 5.0 12.0 0.00 0.00 0.00 55 1012.5
20260902210431 96 203 5.0 12.0 0.00 0.00 0.00 57 1012.5
20260902205931 97 158 9.0 12.0 0.00 0.00 0.00 54 1012.5
20260902205425 96 180 7.0 12.0 0.00 0.00 0.00 55 1012.5
20260902204921 97 203 7.0 12.0 0.00 0.00 0.00 54 1012.5
20260902204415 97 180 5.0 12.0 0.00 0.00 0.00 56 1012.5
20260902203910 97 113 6.0 12.0 0.00 0.00 0.00 53 1012.5
20260902203406 96 225 6.0 12.0 0.00 0.00 0.00 57 1012.9
20260902202906 97 180 6.0 11.0 0.00 0.00 0.00 56 1012.9
20260902202400 98 248 7.0 11.0 0.00 0.00 0.00 55 1012.9
20260902201855 96 135 6.0 11.0 0.00 0.00 0.00 54 1012.9
20260902201351 97 248 5.0 11.0 0.00 0.00 0.00 56 1012.9
20260902200845 97 225 5.0 11.0 0.00 0.00 0.00 56 1012.9
20260902200340 97 293 8.0 11.0 0.00 0.00 0.00 55 1012.9
20260902195835 98 270 5.0 11.0 0.00 0.00 0.00 56 1012.9
20260902195336 97 203 7.0 11.0 0.00 0.00 0.00 54 1012.9
20260902194834 98 293 4.0 11.0 0.00 0.00 0.00 54 1013.2
20260902194333 98 180 4.0 11.0 0.00 0.00 0.00 54 1013.2
20260902193830 98 158 7.0 11.0 0.00 0.00 0.00 53 1013.2
20260902193325 97 90 4.0 11.0 0.00 0.00 0.00 54 1013.2
20260902192820 96 248 5.0 11.0 0.00 0.00 0.00 56 1013.2
20260902192316 96 203 10.0 11.0 0.00 0.00 0.00 56 1013.2
20260902191810 96 225 6.0 11.0 0.00 0.00 0.00 55 1013.2
20260902191305 96 203 7.0 10.0 0.00 0.00 0.00 55 1013.2
20260902190801 97 203 6.0 9.0 0.00 0.00 0.00 57 1013.2
20260902190256 96 225 7.0 7.0 0.00 0.00 0.00 56 1013.2
20260902184910 96 180 6.0 15.0 0.00 0.00 0.00 58 1013.5
20260902184405 96 158 6.0 15.0 0.00 0.00 0.00 57 1013.5
20260902183905 96 180 9.0 15.0 0.00 0.00 0.00 57 1013.5
20260902183400 95 180 9.0 15.0 0.00 0.00 0.00 57 1013.5
20260902182855 96 158 6.0 11.0 0.00 0.00 0.00 58 1013.5
20260902182349 96 248 6.0 11.0 0.00 0.00 0.00 57 1013.5
20260902181845 95 180 6.0 11.0 0.00 0.00 0.00 58 1013.5
20260902181340 94 158 8.0 11.0 0.00 0.00 0.00 59 1013.5
20260902180840 95 180 7.0 11.0 0.00 0.00 0.00 55 1013.5
20260902180335 96 135 6.0 11.0 0.00 0.00 0.00 57 1013.5
20260902175830 95 203 6.0 10.0 0.00 0.00 0.00 58 1013.9
20260902175325 95 203 6.0 10.0 0.00 0.00 0.00 58 1013.9
20260902174820 95 23 5.0 10.0 0.00 0.00 0.00 57 1013.9
20260902174315 94 158 6.0 10.0 0.00 0.00 0.00 60 1013.9
20260902173810 93 180 5.0 10.0 0.00 0.00 0.00 60 1013.9
20260902173305 96 180 5.0 10.0 0.00 0.00 0.00 57 1014.2
20260902172800 94 180 5.0 10.0 0.00 0.00 0.00 59 1014.2
20260902172255 94 180 4.0 10.0 0.00 0.00 0.00 59 1014.2
20260902171750 94 180 6.0 10.0 0.00 0.00 0.00 58 1014.2
20260902171245 93 180 9.0 10.0 0.00 0.00 0.00 60 1014.2
20260902170740 92 180 8.0 10.0 0.00 0.00 0.00 60 1014.2
20260902170235 94 113 3.0 8.0 0.00 0.00 0.00 60 1014.2
20260902165730 94 180 5.0 8.0 0.00 0.00 0.00 60 1014.2
20260902165225 94 203 4.0 8.0 0.00 0.00 0.00 60 1014.2
20260902164720 94 68 5.0 8.0 0.00 0.00 0.00 58 1014.2
20260902164215 94 158 2.0 9.0 0.00 0.00 0.00 58 1014.2
20260902163715 94 135 4.0 9.0 0.00 0.00 0.00 60 1014.2
20260902163210 93 158 6.0 9.0 0.00 0.00 0.00 60 1014.2
20260902162705 93 203 5.0 9.0 0.00 0.00 0.00 59 1014.2
20260902162200 94 135 7.0 9.0 0.00 0.00 0.00 58 1014.6
20260902161655 92 225 5.0 9.0 0.00 0.00 0.00 60 1014.6
20260902161150 91 180 6.0 9.0 0.00 0.00 0.00 61 1014.6
20260902160645 93 180 6.0 9.0 0.00 0.00 0.00 59 1014.6
20260902160140 92 293 4.0 9.0 0.00 0.00 0.00 61 1014.6
20260902155636 92 225 5.0 9.0 0.00 0.00 0.00 61 1014.9
20260902155131 92 180 4.0 9.0 0.00 0.00 0.00 62 1014.9
20260902154630 90 180 7.0 11.0 0.00 0.00 0.00 63 1014.6
20260902154125 90 180 7.0 11.0 0.00 0.00 0.00 63 1014.6
20260902153620 90 180 7.0 11.0 0.00 0.00 0.00 63 1014.6
20260902153116 90 180 7.0 11.0 0.00 0.00 0.00 63 1014.6
20260902152611 90 203 6.0 11.0 0.00 0.00 0.00 62 1014.6
20260902152111 90 338 7.0 11.0 0.00 0.00 0.00 61 1014.9
20260902151610 90 180 4.0 11.0 0.00 0.00 0.00 62 1014.9
20260902151106 90 203 5.0 11.0 0.00 0.00 0.00 62 1014.9
20260902150601 90 135 7.0 11.0 0.00 0.00 0.00 63 1014.9
20260902150100 90 270 8.0 11.0 0.00 0.00 0.00 61 1014.9
20260902145555 89 180 6.0 11.0 0.00 0.00 0.00 64 1014.6
20260902145050 88 248 4.0 11.0 0.00 0.00 0.00 65 1014.6
20260902144545 88 248 4.0 11.0 0.00 0.00 0.00 65 1014.6
20260902144040 88 248 4.0 11.0 0.00 0.00 0.00 65 1014.6
20260902143535 88 180 7.0 11.0 0.00 0.00 0.00 64 1014.6
20260902143030 87 45 7.0 11.0 0.00 0.00 0.00 65 1014.6
20260902142525 87 180 7.0 11.0 0.00 0.00 0.00 67 1014.6
20260902142020 86 248 7.0 11.0 0.00 0.00 0.00 66 1014.6
20260902141515 86 0 6.0 11.0 0.00 0.00 0.00 66 1014.6
20260902141010 86 315 5.0 10.0 0.00 0.00 0.00 66 1014.6
20260902140505 86 180 7.0 9.0 0.00 0.00 0.00 67 1014.6
20260902140000 86 270 9.0 9.0 0.00 0.00 0.00 66 1014.6
20260902135455 85 203 7.0 8.0 0.00 0.00 0.00 68 1014.6
20260902134950 85 180 7.0 8.0 0.00 0.00 0.00 68 1014.6
20260902134445 84 203 5.0 8.0 0.00 0.00 0.00 70 1014.6
20260902133940 84 113 4.0 8.0 0.00 0.00 0.00 70 1014.6
20260902133435 82 203 5.0 8.0 0.00 0.00 0.00 74 1014.9
20260902132935 82 270 5.0 8.0 0.00 0.00 0.00 74 1014.9
20260902132429 82 248 7.0 8.0 0.00 0.00 0.00 73 1014.9
20260902131925 81 203 5.0 8.0 0.00 0.00 0.00 74 1014.9
20260902131420 80 180 4.0 8.0 0.00 0.00 0.00 77 1014.9
20260902130915 80 180 3.0 8.0 0.00 0.00 0.00 77 1015.2
20260902130410 79 225 5.0 8.0 0.00 0.00 0.00 77 1015.2
20260902125910 79 315 6.0 8.0 0.00 0.00 0.00 77 1015.2
20260902125405 79 158 4.0 8.0 0.00 0.00 0.00 78 1015.2
20260902124900 79 203 4.0 8.0 0.00 0.00 0.00 79 1015.2
20260902124359 78 270 2.0 5.0 0.00 0.00 0.00 80 1015.2
20260902123855 78 180 4.0 5.0 0.00 0.00 0.00 80 1015.2
20260902123350 78 203 2.0 5.0 0.00 0.00 0.00 82 1015.2
20260902122845 77 203 2.0 5.0 0.00 0.00 0.00 81 1015.2
20260902122345 77 270 4.0 5.0 0.00 0.00 0.00 83 1015.2
20260902121840 77 180 2.0 5.0 0.00 0.00 0.00 83 1015.2
20260902121335 76 203 2.0 5.0 0.00 0.00 0.00 85 1015.2
20260902120835 76 203 4.0 4.0 0.00 0.00 0.00 84 1015.2
20260902120330 76 180 2.0 4.0 0.00 0.00 0.00 86 1015.2
20260902115825 75 158 1.0 4.0 0.00 0.00 0.00 88 1015.2
20260902115320 75 135 0.0 4.0 0.00 0.00 0.00 87 1015.2
20260902114815 75 158 0.0 4.0 0.00 0.00 0.00 88 1015.2
20260902114315 75 158 0.0 3.0 0.00 0.00 0.00 89 1015.2
20260902113815 74 225 1.0 3.0 0.00 0.00 0.00 89 1015.2
20260902113310 74 293 1.0 3.0 0.00 0.00 0.00 89 1014.9
20260902112805 74 225 0.0 2.0 0.00 0.00 0.00 90 1014.9
20260902112300 74 203 0.0 2.0 0.00 0.00 0.00 91 1014.9
20260902111755 74 203 2.0 2.0 0.00 0.00 0.00 91 1014.9
20260902111250 74 158 0.0 2.0 0.00 0.00 0.00 91 1014.9
20260902110745 74 135 2.0 2.0 0.00 0.00 0.00 92 1014.9
20260902110240 74 180 0.0 2.0 0.00 0.00 0.00 92 1014.9
20260902105734 74 180 0.0 2.0 0.00 0.00 0.00 92 1014.9
20260902105230 74 180 0.0 2.0 0.00 0.00 0.00 92 1014.9
20260902104724 74 203 0.0 2.0 0.00 0.00 0.00 92 1014.6
20260902104220 74 90 0.0 2.0 0.00 0.00 0.00 92 1014.6
20260902103715 74 90 0.0 2.0 0.00 0.00 0.00 91 1014.6
20260902103210 74 90 0.0 2.0 0.00 0.00 0.00 91 1014.6
20260902102710 74 135 0.0 3.0 0.00 0.00 0.00 91 1014.6
20260902102210 74 135 0.0 3.0 0.00 0.00 0.00 91 1014.6
20260902101704 74 338 0.0 3.0 0.00 0.00 0.00 90 1014.6
20260902101200 75 338 0.0 3.0 0.00 0.00 0.00 89 1014.6
20260902100654 75 203 0.0 3.0 0.00 0.00 0.00 89 1014.2
20260902100150 75 23 0.0 3.0 0.00 0.00 0.00 89 1014.2
20260902095645 75 23 0.0 3.0 0.00 0.00 0.00 90 1014.2
20260902095139 75 203 0.0 3.0 0.00 0.00 0.00 90 1014.2
20260902094635 75 203 0.0 3.0 0.00 0.00 0.00 89 1014.2
20260902094129 76 203 2.0 3.0 0.00 0.00 0.00 89 1014.2
20260902093624 76 203 2.0 3.0 0.00 0.00 0.00 89 1014.2
20260902093120 76 203 2.0 3.0 0.00 0.00 0.00 89 1014.2
20260902092615 76 270 0.0 3.0 0.00 0.00 0.00 89 1014.2
20260902092110 76 135 1.0 3.0 0.00 0.00 0.00 89 1014.2
20260902091605 76 248 0.0 3.0 0.00 0.00 0.00 88 1014.2
20260902091105 76 315 2.0 3.0 0.00 0.00 0.00 88 1014.2
20260902090600 76 293 2.0 3.0 0.00 0.00 0.00 89 1014.2
20260902090055 75 203 1.0 3.0 0.00 0.00 0.00 90 1014.2
20260902085550 75 338 2.0 4.0 0.00 0.00 0.00 91 1014.2
20260902085044 75 293 0.0 4.0 0.00 0.00 0.00 92 1014.2
20260902084540 75 180 0.0 4.0 0.00 0.00 0.00 91 1014.2
20260902084035 75 293 0.0 4.0 0.00 0.00 0.00 90 1014.2
20260902083025 76 248 2.0 4.0 0.00 0.00 0.00 90 1014.2
20260902082520 76 270 2.0 4.0 0.00 0.00 0.00 90 1014.2
20260902082015 76 270 1.0 4.0 0.00 0.00 0.00 90 1014.2
20260902081510 76 180 2.0 4.0 0.00 0.00 0.00 90 1014.2
20260902081010 76 338 1.0 4.0 0.00 0.00 0.00 90 1014.2
20260902080510 76 203 2.0 4.0 0.00 0.00 0.00 89 1014.2
20260902080009 76 180 0.0 4.0 0.00 0.00 0.00 89 1014.2
20260902075510 76 248 3.0 4.0 0.00 0.00 0.00 90 1014.6
20260902075004 76 225 0.0 2.0 0.00 0.00 0.00 90 1014.6
20260902074459 76 158 0.0 2.0 0.00 0.00 0.00 89 1014.2
20260902073955 76 203 2.0 3.0 0.00 0.00 0.00 89 1014.2
20260902073450 76 158 2.0 3.0 0.00 0.00 0.00 89 1014.2
20260902072944 76 180 2.0 4.0 0.00 0.00 0.00 88 1014.2
20260902072439 76 248 2.0 4.0 0.00 0.00 0.00 89 1014.2
20260902071935 76 270 1.0 4.0 0.00 0.00 0.00 89 1014.2
20260902071429 76 135 2.0 4.0 0.00 0.00 0.00 89 1014.2
20260902070925 77 203 2.0 4.0 0.00 0.00 0.00 88 1014.2
20260902070420 76 180 2.0 4.0 0.00 0.00 0.00 89 1014.2
20260902065915 76 270 1.0 4.0 0.00 0.00 0.00 89 1014.2
20260902065409 77 135 2.0 4.0 0.00 0.00 0.00 88 1014.2
20260902064905 77 158 2.0 4.0 0.00 0.00 0.00 88 1014.2
20260902064400 77 203 2.0 4.0 0.00 0.00 0.00 88 1013.9
20260902063854 78 270 2.0 4.0 0.00 0.00 0.00 87 1013.9
20260902063350 78 180 2.0 4.0 0.00 0.00 0.00 87 1013.9
20260902062844 78 180 2.0 4.0 0.00 0.00 0.00 87 1013.9
20260902062339 78 203 3.0 4.0 0.00 0.00 0.00 88 1014.2
20260902061834 78 203 0.0 5.0 0.00 0.00 0.00 87 1014.2
20260902061330 78 315 1.0 5.0 0.00 0.00 0.00 87 1014.2
20260902060824 78 338 1.0 5.0 0.00 0.00 0.00 86 1014.2
20260902060320 78 203 0.0 5.0 0.00 0.00 0.00 86 1014.2
20260902055815 79 158 2.0 5.0 0.00 0.00 0.00 86 1014.2
20260902055309 79 180 2.0 6.0 0.00 0.00 0.00 85 1014.2
20260902054805 79 180 2.0 6.0 0.00 0.00 0.00 85 1014.2
20260902054300 79 248 2.0 6.0 0.00 0.00 0.00 85 1014.2
20260902053754 79 225 2.0 6.0 0.00 0.00 0.00 84 1014.2
20260902053250 80 23 2.0 6.0 0.00 0.00 0.00 84 1014.2
20260902052744 80 203 4.0 6.0 0.00 0.00 0.00 84 1014.2
20260902052240 80 225 3.0 6.0 0.00 0.00 0.00 84 1014.2
20260902051740 80 248 4.0 6.0 0.00 0.00 0.00 84 1014.2
20260902051235 80 203 4.0 6.0 0.00 0.00 0.00 84 1014.2
20260902050734 80 68 2.0 6.0 0.00 0.00 0.00 84 1014.2
20260902050230 80 248 4.0 6.0 0.00 0.00 0.00 84 1014.2
20260902045725 80 158 2.0 6.0 0.00 0.00 0.00 84 1014.2
20260902045220 80 203 5.0 6.0 0.00 0.00 0.00 84 1014.2
20260902044714 80 248 4.0 6.0 0.00 0.00 0.00 84 1014.2
20260902044210 80 203 4.0 6.0 0.00 0.00 0.00 84 1014.2
20260902043704 81 203 2.0 6.0 0.00 0.00 0.00 84 1014.2
20260902043159 81 203 3.0 6.0 0.00 0.00 0.00 83 1014.2
20260902042655 81 203 4.0 6.0 0.00 0.00 0.00 83 1014.2
20260902042150 81 203 6.0 6.0 0.00 0.00 0.00 83 1014.2
20260902041644 81 248 3.0 6.0 0.00 0.00 0.00 83 1014.2
20260902041139 81 180 4.0 6.0 0.00 0.00 0.00 83 1014.2
20260902040635 81 203 3.0 6.0 0.00 0.00 0.00 83 1014.2
20260902040130 81 180 4.0 6.0 0.00 0.00 0.00 83 1014.2
20260902035625 81 113 5.0 6.0 0.00 0.00 0.00 83 1014.2
20260902035120 82 203 4.0 6.0 0.00 0.00 0.00 83 1014.2
20260902034615 82 180 3.0 5.0 0.00 0.00 0.00 83 1014.2
20260902034110 81 203 4.0 5.0 0.00 0.00 0.00 84 1014.2
20260902033605 82 203 2.0 5.0 0.00 0.00 0.00 83 1014.2
20260902033100 81 158 2.0 5.0 0.00 0.00 0.00 84 1014.2
20260902032555 82 158 4.0 5.0 0.00 0.00 0.00 83 1014.2
20260902032049 82 180 4.0 5.0 0.00 0.00 0.00 83 1014.2
20260902031544 82 225 2.0 5.0 0.00 0.00 0.00 83 1014.2
20260902031040 82 248 4.0 5.0 0.00 0.00 0.00 83 1014.2
20260902030534 82 248 2.0 5.0 0.00 0.00 0.00 83 1014.2
20260902030030 82 270 2.0 5.0 0.00 0.00 0.00 84 1014.2
20260902025525 82 203 2.0 5.0 0.00 0.00 0.00 84 1014.2
20260902025020 82 180 3.0 5.0 0.00 0.00 0.00 84 1014.2
20260902024515 82 203 2.0 5.0 0.00 0.00 0.00 84 1014.2
20260902024010 82 180 2.0 5.0 0.00 0.00 0.00 83 1014.2
20260902023504 82 180 2.0 5.0 0.00 0.00 0.00 84 1014.2
20260902023000 82 180 3.0 5.0 0.00 0.00 0.00 84 1014.2
20260902022454 82 180 3.0 5.0 0.00 0.00 0.00 83 1014.2
20260902021949 82 180 4.0 4.0 0.00 0.00 0.00 84 1013.9
20260902021445 82 180 3.0 4.0 0.00 0.00 0.00 83 1013.9
20260902020940 82 158 2.0 4.0 0.00 0.00 0.00 83 1014.2